| time (UTC) | temp F | wind direction | speed knots | gust knots | rain 1hr in | rain 24hr in | rain mn in | humidity % | barometer mb |
| 20260507124503 | 51 | 310 | 4.3 | 11.3 | 0.00 | 0.40 | 0.16 | 77 | 1005.1 |
| 20260507124003 | 50 | 314 | 5.2 | 11.3 | 0.00 | 0.40 | 0.16 | 77 | 1005.1 |
| 20260507123524 | 50 | 313 | 6.1 | 12.2 | 0.00 | 0.40 | 0.16 | 77 | 1005.4 |
| 20260507123003 | 50 | 307 | 5.2 | 12.2 | 0.00 | 0.40 | 0.16 | 78 | 1005.2 |
| 20260507122503 | 50 | 300 | 3.5 | 12.2 | 0.00 | 0.40 | 0.16 | 80 | 1005.4 |
| 20260507122003 | 50 | 287 | 2.6 | 9.6 | 0.00 | 0.40 | 0.16 | 80 | 1005.4 |
| 20260507121524 | 50 | 290 | 4.3 | 9.6 | 0.00 | 0.40 | 0.16 | 81 | 1005.4 |
| 20260507121024 | 49 | 302 | 4.3 | 9.6 | 0.00 | 0.40 | 0.16 | 81 | 1005.2 |
| 20260507120503 | 49 | 286 | 3.5 | 8.7 | 0.00 | 0.40 | 0.16 | 82 | 1005.6 |
| 20260507120004 | 49 | 262 | 3.5 | 10.4 | 0.00 | 0.40 | 0.16 | 83 | 1005.6 |
| 20260507115503 | 48 | 274 | 3.5 | 10.4 | 0.00 | 0.40 | 0.16 | 83 | 1005.4 |
| 20260507115003 | 48 | 282 | 2.6 | 7.0 | 0.00 | 0.40 | 0.16 | 84 | 1005.3 |
| 20260507114503 | 48 | 260 | 2.6 | 7.0 | 0.00 | 0.40 | 0.16 | 85 | 1005.7 |
| 20260507114003 | 48 | 243 | 2.6 | 6.1 | 0.00 | 0.40 | 0.16 | 85 | 1005.8 |
| 20260507113503 | 48 | 257 | 3.5 | 7.8 | 0.00 | 0.40 | 0.16 | 85 | 1005.9 |
| 20260507113003 | 47 | 273 | 3.5 | 7.8 | 0.00 | 0.40 | 0.16 | 85 | 1005.6 |
| 20260507112503 | 47 | 279 | 3.5 | 8.7 | 0.00 | 0.40 | 0.16 | 85 | 1005.3 |
| 20260507112003 | 47 | 279 | 4.3 | 10.4 | 0.00 | 0.40 | 0.16 | 86 | 1005.7 |
| 20260507111503 | 47 | 280 | 4.3 | 10.4 | 0.00 | 0.40 | 0.16 | 86 | 1005.6 |
| 20260507111003 | 47 | 287 | 3.5 | 8.7 | 0.00 | 0.40 | 0.16 | 87 | 1005.1 |
| 20260507110503 | 47 | 289 | 3.5 | 8.7 | 0.00 | 0.40 | 0.16 | 87 | 1005.4 |
| 20260507110003 | 47 | 283 | 4.3 | 10.4 | 0.00 | 0.40 | 0.16 | 88 | 1005.3 |
| 20260507105503 | 47 | 277 | 4.3 | 10.4 | 0.00 | 0.40 | 0.16 | 88 | 1005.4 |
| 20260507105003 | 47 | 281 | 4.3 | 8.7 | 0.00 | 0.40 | 0.16 | 90 | 1005.4 |
| 20260507104503 | 46 | 296 | 3.5 | 8.7 | 0.00 | 0.40 | 0.16 | 90 | 1005.2 |
| 20260507104003 | 46 | 302 | 2.6 | 7.8 | 0.00 | 0.40 | 0.16 | 90 | 1005.1 |
| 20260507103503 | 46 | 285 | 3.5 | 7.0 | 0.00 | 0.40 | 0.16 | 90 | 1005.0 |
| 20260507103003 | 46 | 280 | 2.6 | 6.1 | 0.00 | 0.40 | 0.16 | 91 | 1005.2 |
| 20260507102524 | 45 | 289 | 2.6 | 7.0 | 0.00 | 0.40 | 0.16 | 91 | 1005.2 |
| 20260507102003 | 45 | 290 | 2.6 | 7.0 | 0.00 | 0.40 | 0.16 | 91 | 1005.0 |
| 20260507101503 | 45 | 296 | 3.5 | 8.7 | 0.00 | 0.40 | 0.16 | 91 | 1005.0 |
| 20260507101003 | 45 | 304 | 3.5 | 8.7 | 0.00 | 0.40 | 0.16 | 91 | 1004.9 |
| 20260507100503 | 45 | 294 | 3.5 | 8.7 | 0.00 | 0.40 | 0.16 | 91 | 1005.0 |
| 20260507100003 | 45 | 287 | 3.5 | 8.7 | 0.00 | 0.40 | 0.16 | 91 | 1005.1 |
| 20260507095503 | 45 | 285 | 3.5 | 8.7 | 0.00 | 0.40 | 0.16 | 91 | 1005.0 |
| 20260507095003 | 45 | 267 | 2.6 | 8.7 | 0.00 | 0.40 | 0.16 | 91 | 1005.0 |
| 20260507094503 | 45 | 270 | 1.7 | 6.1 | 0.00 | 0.40 | 0.16 | 91 | 1005.0 |
| 20260507094003 | 45 | 284 | 1.7 | 7.0 | 0.00 | 0.40 | 0.16 | 91 | 1004.9 |
| 20260507093503 | 45 | 285 | 2.6 | 7.0 | 0.00 | 0.40 | 0.16 | 91 | 1005.0 |
| 20260507093003 | 45 | 280 | 2.6 | 7.0 | 0.00 | 0.40 | 0.16 | 92 | 1005.0 |
| 20260507092524 | 45 | 276 | 2.6 | 7.0 | 0.00 | 0.40 | 0.16 | 92 | 1005.2 |
| 20260507092003 | 44 | 276 | 2.6 | 9.6 | 0.00 | 0.40 | 0.16 | 92 | 1005.3 |
| 20260507091503 | 44 | 286 | 3.5 | 9.6 | 0.00 | 0.40 | 0.16 | 92 | 1005.0 |
| 20260507091003 | 45 | 292 | 4.3 | 9.6 | 0.00 | 0.40 | 0.16 | 92 | 1004.7 |
| 20260507090524 | 45 | 290 | 4.3 | 9.6 | 0.00 | 0.40 | 0.16 | 92 | 1004.6 |
| 20260507090003 | 45 | 285 | 4.3 | 9.6 | 0.00 | 0.40 | 0.16 | 92 | 1004.6 |
| 20260507085503 | 45 | 280 | 4.3 | 10.4 | 0.00 | 0.40 | 0.16 | 92 | 1004.7 |
| 20260507085003 | 45 | 282 | 4.3 | 10.4 | 0.00 | 0.40 | 0.16 | 92 | 1004.6 |
| 20260507084503 | 45 | 287 | 3.5 | 7.8 | 0.00 | 0.40 | 0.16 | 92 | 1004.7 |
| 20260507084003 | 45 | 285 | 3.5 | 9.6 | 0.00 | 0.40 | 0.16 | 93 | 1004.5 |
| 20260507083503 | 45 | 289 | 4.3 | 9.6 | 0.00 | 0.40 | 0.16 | 93 | 1004.8 |
| 20260507083003 | 46 | 301 | 4.3 | 9.6 | 0.00 | 0.40 | 0.16 | 93 | 1004.6 |
| 20260507082503 | 46 | 295 | 3.5 | 8.7 | 0.00 | 0.40 | 0.16 | 93 | 1004.4 |
| 20260507082024 | 46 | 284 | 3.5 | 12.2 | 0.00 | 0.40 | 0.16 | 93 | 1004.7 |
| 20260507081503 | 46 | 292 | 3.5 | 12.2 | 0.00 | 0.40 | 0.16 | 93 | 1004.7 |
| 20260507081003 | 46 | 300 | 3.5 | 10.4 | 0.00 | 0.40 | 0.16 | 93 | 1004.4 |
| 20260507080503 | 46 | 304 | 4.3 | 10.4 | 0.00 | 0.40 | 0.16 | 93 | 1004.4 |
| 20260507080003 | 46 | 305 | 4.3 | 10.4 | 0.00 | 0.40 | 0.16 | 93 | 1004.3 |
| 20260507075503 | 46 | 301 | 4.3 | 10.4 | 0.00 | 0.40 | 0.16 | 93 | 1004.7 |
| 20260507075003 | 46 | 292 | 4.3 | 10.4 | 0.01 | 0.40 | 0.16 | 93 | 1004.7 |
| 20260507074503 | 46 | 294 | 3.5 | 8.7 | 0.01 | 0.40 | 0.16 | 93 | 1004.5 |
| 20260507074003 | 46 | 298 | 3.5 | 8.7 | 0.01 | 0.40 | 0.16 | 93 | 1004.3 |
| 20260507073503 | 46 | 290 | 3.5 | 7.8 | 0.01 | 0.40 | 0.16 | 93 | 1004.4 |
| 20260507073003 | 46 | 292 | 2.6 | 7.0 | 0.01 | 0.40 | 0.16 | 93 | 1004.4 |
| 20260507072503 | 46 | 295 | 3.5 | 10.4 | 0.01 | 0.40 | 0.16 | 94 | 1004.3 |
| 20260507072024 | 46 | 300 | 4.3 | 10.4 | 0.01 | 0.40 | 0.16 | 93 | 1004.2 |
| 20260507071503 | 46 | 300 | 4.3 | 9.6 | 0.01 | 0.40 | 0.16 | 93 | 1004.0 |
| 20260507071003 | 46 | 299 | 5.2 | 12.2 | 0.01 | 0.40 | 0.16 | 94 | 1004.0 |
| 20260507070503 | 47 | 298 | 5.2 | 13.0 | 0.01 | 0.40 | 0.16 | 94 | 1003.9 |
| 20260507070005 | 47 | 298 | 4.3 | 13.0 | 0.02 | 0.40 | 0.16 | 94 | 1004.0 |
| 20260507065503 | 47 | 295 | 3.5 | 8.7 | 0.03 | 0.40 | 0.16 | 94 | 1004.0 |
| 20260507065003 | 47 | 290 | 4.3 | 10.4 | 0.04 | 0.39 | 0.15 | 94 | 1003.8 |
| 20260507064524 | 47 | 297 | 4.3 | 10.4 | 0.05 | 0.39 | 0.15 | 94 | 1003.8 |
| 20260507064003 | 47 | 304 | 4.3 | 8.7 | 0.06 | 0.39 | 0.15 | 94 | 1003.6 |
| 20260507063503 | 47 | 307 | 4.3 | 8.7 | 0.06 | 0.39 | 0.15 | 94 | 1003.7 |
| 20260507063003 | 48 | 309 | 3.5 | 8.7 | 0.06 | 0.39 | 0.15 | 94 | 1003.6 |
| 20260507062503 | 48 | 293 | 2.6 | 9.6 | 0.08 | 0.39 | 0.15 | 94 | 1003.7 |
| 20260507062024 | 48 | 295 | 3.5 | 9.6 | 0.08 | 0.39 | 0.15 | 94 | 1003.7 |
| 20260507061503 | 48 | 310 | 4.3 | 11.3 | 0.09 | 0.39 | 0.15 | 94 | 1003.6 |
| 20260507061003 | 48 | 309 | 3.5 | 11.3 | 0.10 | 0.39 | 0.15 | 94 | 1003.4 |
| 20260507060503 | 48 | 289 | 2.6 | 6.1 | 0.10 | 0.39 | 0.15 | 94 | 1003.9 |
| 20260507060003 | 48 | 275 | 3.5 | 9.6 | 0.10 | 0.38 | 0.14 | 94 | 1004.1 |
| 20260507055503 | 48 | 268 | 4.3 | 9.6 | 0.10 | 0.37 | 0.13 | 94 | 1004.3 |
| 20260507055003 | 48 | 266 | 5.2 | 10.4 | 0.08 | 0.35 | 0.11 | 94 | 1004.3 |
| 20260507054503 | 48 | 271 | 5.2 | 10.4 | 0.08 | 0.34 | 0.10 | 94 | 1004.1 |
| 20260507054003 | 49 | 281 | 5.2 | 9.6 | 0.07 | 0.33 | 0.09 | 94 | 1003.9 |
| 20260507053503 | 49 | 287 | 4.3 | 9.6 | 0.07 | 0.33 | 0.09 | 94 | 1003.3 |
| 20260507053024 | 49 | 286 | 3.5 | 8.7 | 0.08 | 0.33 | 0.09 | 94 | 1003.2 |
| 20260507052503 | 49 | 300 | 5.2 | 11.3 | 0.06 | 0.31 | 0.08 | 94 | 1003.5 |
| 20260507052003 | 49 | 310 | 5.2 | 11.3 | 0.06 | 0.31 | 0.07 | 94 | 1003.4 |
| 20260507051503 | 49 | 301 | 4.3 | 11.3 | 0.06 | 0.30 | 0.06 | 94 | 1003.2 |
| 20260507051003 | 50 | 297 | 5.2 | 12.2 | 0.05 | 0.29 | 0.05 | 94 | 1003.2 |
| 20260507050503 | 50 | 293 | 5.2 | 13.0 | 0.05 | 0.29 | 0.05 | 94 | 1003.4 |
| 20260507050003 | 50 | 289 | 5.2 | 13.0 | 0.04 | 0.28 | 0.04 | 94 | 1003.5 |
| 20260507045503 | 50 | 294 | 6.1 | 12.2 | 0.03 | 0.27 | 0.03 | 94 | 1003.5 |
| 20260507045003 | 51 | 307 | 3.5 | 10.4 | 0.03 | 0.27 | 0.03 | 94 | 1003.7 |
| 20260507044503 | 51 | 286 | 2.6 | 7.8 | 0.02 | 0.26 | 0.02 | 94 | 1003.7 |
| 20260507044003 | 51 | 252 | 4.3 | 7.8 | 0.03 | 0.26 | 0.02 | 94 | 1003.5 |
| 20260507043503 | 51 | 232 | 3.5 | 7.0 | 0.03 | 0.26 | 0.02 | 94 | 1003.4 |
| 20260507043003 | 51 | 209 | 2.6 | 6.1 | 0.02 | 0.25 | 0.01 | 94 | 1003.1 |
| 20260507042503 | 51 | 198 | 2.6 | 7.8 | 0.02 | 0.25 | 0.01 | 94 | 1003.1 |
| 20260507042003 | 51 | 201 | 3.5 | 7.8 | 0.02 | 0.25 | 0.01 | 94 | 1003.0 |
| 20260507041503 | 51 | 197 | 2.6 | 7.0 | 0.01 | 0.24 | 0.00 | 94 | 1002.9 |
| 20260507041003 | 51 | 196 | 2.6 | 7.0 | 0.01 | 0.24 | 0.00 | 94 | 1003.0 |
| 20260507040503 | 51 | 206 | 3.5 | 7.8 | 0.01 | 0.24 | 0.00 | 94 | 1003.0 |
| 20260507040003 | 51 | 207 | 3.5 | 10.4 | 0.01 | 0.24 | 0.00 | 94 | 1003.1 |
| 20260507035524 | 51 | 201 | 4.3 | 10.4 | 0.01 | 0.24 | 0.24 | 94 | 1003.0 |
| 20260507035003 | 51 | 189 | 5.2 | 12.2 | 0.01 | 0.24 | 0.24 | 94 | 1003.0 |
| 20260507034503 | 51 | 180 | 6.1 | 14.8 | 0.01 | 0.24 | 0.24 | 94 | 1003.0 |
| 20260507034003 | 51 | 180 | 7.0 | 14.8 | 0.00 | 0.23 | 0.23 | 94 | 1003.0 |
| 20260507033503 | 51 | 179 | 7.0 | 13.9 | 0.00 | 0.23 | 0.23 | 94 | 1003.0 |
| 20260507033003 | 51 | 176 | 7.0 | 13.9 | 0.00 | 0.23 | 0.23 | 94 | 1002.9 |
| 20260507032503 | 51 | 179 | 7.0 | 13.0 | 0.00 | 0.23 | 0.23 | 93 | 1003.0 |
| 20260507032003 | 52 | 175 | 7.8 | 14.8 | 0.00 | 0.23 | 0.23 | 94 | 1002.9 |
| 20260507031524 | 52 | 176 | 8.7 | 14.8 | 0.00 | 0.23 | 0.23 | 94 | 1002.9 |
| 20260507031024 | 52 | 177 | 7.8 | 14.8 | 0.00 | 0.23 | 0.23 | 94 | 1002.9 |
| 20260507030503 | 52 | 170 | 8.7 | 16.5 | 0.00 | 0.23 | 0.23 | 93 | 1002.9 |
| 20260507030003 | 52 | 169 | 10.4 | 16.5 | 0.00 | 0.23 | 0.23 | 93 | 1003.0 |
| 20260507025503 | 52 | 170 | 9.6 | 16.5 | 0.00 | 0.23 | 0.23 | 94 | 1003.0 |
| 20260507025003 | 52 | 175 | 7.8 | 14.8 | 0.00 | 0.23 | 0.23 | 94 | 1003.1 |
| 20260507024503 | 52 | 175 | 7.0 | 17.4 | 0.00 | 0.23 | 0.23 | 94 | 1003.3 |
| 20260507024024 | 52 | 170 | 8.7 | 19.1 | 0.00 | 0.23 | 0.23 | 93 | 1003.3 |
| 20260507023503 | 52 | 172 | 8.7 | 19.1 | 0.00 | 0.23 | 0.23 | 93 | 1003.5 |
| 20260507023024 | 52 | 172 | 7.8 | 16.5 | 0.00 | 0.23 | 0.23 | 93 | 1003.5 |
| 20260507022524 | 52 | 170 | 8.7 | 16.5 | 0.00 | 0.23 | 0.23 | 93 | 1003.6 |
| 20260507022003 | 52 | 173 | 7.8 | 17.4 | 0.00 | 0.23 | 0.23 | 93 | 1003.6 |
| 20260507021524 | 52 | 175 | 7.0 | 17.4 | 0.00 | 0.23 | 0.23 | 93 | 1003.6 |
| 20260507021003 | 52 | 171 | 8.7 | 21.7 | 0.00 | 0.23 | 0.23 | 93 | 1003.7 |
| 20260507020524 | 52 | 169 | 11.3 | 21.7 | 0.00 | 0.23 | 0.23 | 93 | 1003.9 |
| 20260507020024 | 53 | 167 | 11.3 | 20.0 | 0.00 | 0.23 | 0.23 | 93 | 1003.9 |
| 20260507015503 | 53 | 169 | 11.3 | 20.9 | 0.00 | 0.23 | 0.23 | 93 | 1004.1 |
| 20260507015003 | 53 | 175 | 9.6 | 20.9 | 0.00 | 0.23 | 0.23 | 93 | 1004.1 |
| 20260507014503 | 53 | 179 | 8.7 | 18.2 | 0.00 | 0.23 | 0.23 | 93 | 1004.2 |
| 20260507014003 | 53 | 172 | 9.6 | 20.9 | 0.00 | 0.23 | 0.23 | 93 | 1004.3 |
| 20260507013503 | 53 | 167 | 10.4 | 20.9 | 0.00 | 0.23 | 0.23 | 93 | 1004.4 |
| 20260507013024 | 53 | 169 | 10.4 | 20.0 | 0.00 | 0.23 | 0.23 | 93 | 1004.5 |
| 20260507012524 | 53 | 172 | 9.6 | 16.5 | 0.00 | 0.23 | 0.23 | 93 | 1004.8 |
| 20260507012003 | 53 | 172 | 8.7 | 15.6 | 0.00 | 0.23 | 0.23 | 93 | 1004.8 |
| 20260507011503 | 53 | 169 | 7.8 | 14.8 | 0.00 | 0.23 | 0.23 | 93 | 1004.8 |
| 20260507010503 | 53 | 164 | 7.8 | 14.8 | 0.00 | 0.23 | 0.23 | 93 | 1005.2 |
| 20260507010003 | 53 | 166 | 7.8 | 15.6 | 0.00 | 0.23 | 0.23 | 93 | 1005.1 |
| 20260507005503 | 52 | 169 | 8.7 | 18.2 | 0.00 | 0.23 | 0.23 | 93 | 1005.2 |
| 20260507005003 | 52 | 166 | 8.7 | 18.2 | 0.00 | 0.23 | 0.23 | 93 | 1005.4 |
| 20260507004524 | 52 | 166 | 8.7 | 15.6 | 0.00 | 0.23 | 0.23 | 93 | 1005.4 |
| 20260507004003 | 52 | 172 | 8.7 | 19.1 | 0.00 | 0.23 | 0.23 | 93 | 1005.5 |
| 20260507003503 | 52 | 174 | 9.6 | 19.1 | 0.00 | 0.23 | 0.23 | 93 | 1005.5 |
| 20260507003003 | 52 | 173 | 8.7 | 19.1 | 0.00 | 0.23 | 0.23 | 93 | 1005.6 |
| 20260507002524 | 52 | 172 | 8.7 | 17.4 | 0.00 | 0.23 | 0.23 | 93 | 1005.6 |
| 20260507002003 | 52 | 175 | 8.7 | 17.4 | 0.01 | 0.23 | 0.23 | 93 | 1005.6 |
| 20260507001503 | 52 | 177 | 8.7 | 14.8 | 0.01 | 0.23 | 0.23 | 93 | 1005.7 |
| 20260507001003 | 52 | 175 | 8.7 | 18.2 | 0.01 | 0.23 | 0.23 | 93 | 1005.6 |
| 20260507000503 | 52 | 178 | 7.8 | 18.2 | 0.01 | 0.23 | 0.23 | 93 | 1005.7 |
| 20260507000003 | 52 | 179 | 8.7 | 19.1 | 0.02 | 0.23 | 0.23 | 93 | 1005.6 |
| 20260506235503 | 52 | 181 | 9.6 | 19.1 | 0.03 | 0.23 | 0.23 | 93 | 1005.7 |
| 20260506235003 | 52 | 178 | 9.6 | 19.1 | 0.03 | 0.23 | 0.23 | 92 | 1005.7 |
| 20260506234524 | 52 | 176 | 11.3 | 20.9 | 0.05 | 0.23 | 0.23 | 92 | 1005.6 |
| 20260506234003 | 52 | 178 | 10.4 | 20.9 | 0.06 | 0.23 | 0.23 | 92 | 1005.7 |
| 20260506233508 | 52 | 180 | 8.7 | 17.4 | 0.07 | 0.23 | 0.23 | 93 | 1005.7 |
| 20260506233003 | 53 | 177 | 8.7 | 21.7 | 0.08 | 0.23 | 0.23 | 93 | 1005.6 |
| 20260506232503 | 53 | 178 | 8.7 | 21.7 | 0.08 | 0.23 | 0.23 | 92 | 1005.7 |
| 20260506232003 | 53 | 183 | 7.8 | 19.1 | 0.09 | 0.22 | 0.22 | 93 | 1005.7 |
| 20260506231503 | 53 | 177 | 9.6 | 20.9 | 0.09 | 0.22 | 0.22 | 92 | 1005.5 |
| 20260506231003 | 53 | 173 | 9.6 | 26.1 | 0.10 | 0.22 | 0.22 | 92 | 1005.5 |
| 20260506230503 | 53 | 172 | 9.6 | 24.3 | 0.12 | 0.22 | 0.22 | 92 | 1005.7 |
| 20260506230003 | 53 | 167 | 9.6 | 20.0 | 0.12 | 0.21 | 0.21 | 92 | 1005.7 |
| 20260506225503 | 53 | 170 | 8.7 | 17.4 | 0.12 | 0.20 | 0.20 | 92 | 1005.7 |
| 20260506225003 | 53 | 170 | 7.8 | 17.4 | 0.12 | 0.20 | 0.20 | 92 | 1005.8 |
| 20260506224503 | 53 | 169 | 7.8 | 22.6 | 0.10 | 0.18 | 0.18 | 92 | 1006.0 |
| 20260506224003 | 53 | 169 | 10.4 | 22.6 | 0.10 | 0.17 | 0.17 | 92 | 1006.0 |
| 20260506223503 | 53 | 166 | 9.6 | 19.1 | 0.10 | 0.16 | 0.16 | 92 | 1006.1 |
| 20260506223003 | 53 | 164 | 7.8 | 19.1 | 0.10 | 0.15 | 0.15 | 92 | 1006.2 |
| 20260506222503 | 53 | 167 | 7.8 | 19.1 | 0.10 | 0.15 | 0.15 | 92 | 1006.2 |
| 20260506222003 | 53 | 173 | 8.7 | 16.5 | 0.09 | 0.13 | 0.13 | 92 | 1006.2 |
| 20260506221503 | 53 | 176 | 8.7 | 16.5 | 0.10 | 0.13 | 0.13 | 92 | 1006.4 |
| 20260506221003 | 53 | 178 | 8.7 | 19.1 | 0.09 | 0.12 | 0.12 | 92 | 1006.5 |
| 20260506220503 | 54 | 174 | 8.7 | 19.1 | 0.07 | 0.10 | 0.10 | 92 | 1006.6 |
| 20260506220003 | 54 | 171 | 8.7 | 16.5 | 0.06 | 0.09 | 0.09 | 92 | 1006.5 |
| 20260506215503 | 53 | 176 | 8.7 | 16.5 | 0.06 | 0.08 | 0.08 | 92 | 1006.3 |
| 20260506215024 | 53 | 177 | 7.8 | 13.9 | 0.06 | 0.08 | 0.08 | 91 | 1006.5 |
| 20260506214503 | 53 | 170 | 7.0 | 13.9 | 0.06 | 0.08 | 0.08 | 91 | 1006.4 |
| 20260506214003 | 53 | 170 | 7.8 | 18.2 | 0.06 | 0.07 | 0.07 | 91 | 1006.3 |
| 20260506213503 | 53 | 173 | 7.8 | 20.0 | 0.06 | 0.06 | 0.06 | 91 | 1006.4 |
| 20260506213024 | 53 | 175 | 7.8 | 20.0 | 0.05 | 0.05 | 0.05 | 91 | 1006.6 |
| 20260506212503 | 53 | 179 | 7.0 | 14.8 | 0.05 | 0.05 | 0.05 | 91 | 1006.7 |
| 20260506212003 | 53 | 175 | 7.8 | 14.8 | 0.04 | 0.04 | 0.04 | 90 | 1006.5 |
| 20260506211503 | 53 | 170 | 9.6 | 18.2 | 0.03 | 0.03 | 0.03 | 90 | 1006.7 |
| 20260506211003 | 53 | 167 | 10.4 | 18.2 | 0.03 | 0.03 | 0.03 | 90 | 1007.0 |
| 20260506210503 | 53 | 164 | 8.7 | 15.6 | 0.03 | 0.03 | 0.03 | 90 | 1006.9 |
| 20260506210003 | 53 | 167 | 8.7 | 19.1 | 0.03 | 0.03 | 0.03 | 90 | 1006.6 |
| 20260506205503 | 53 | 169 | 8.7 | 19.1 | 0.02 | 0.02 | 0.02 | 89 | 1006.7 |
| 20260506205003 | 54 | 172 | 7.8 | 15.6 | 0.02 | 0.02 | 0.02 | 89 | 1006.8 |
| 20260506204503 | 54 | 175 | 7.0 | 15.6 | 0.02 | 0.02 | 0.02 | 88 | 1006.9 |
| 20260506204003 | 54 | 174 | 8.7 | 20.0 | 0.01 | 0.01 | 0.01 | 88 | 1007.1 |
| 20260506203503 | 54 | 173 | 8.7 | 20.0 | 0.00 | 0.00 | 0.00 | 88 | 1007.2 |
| 20260506203003 | 54 | 174 | 7.0 | 15.6 | 0.00 | 0.00 | 0.00 | 88 | 1007.1 |
| 20260506202503 | 54 | 172 | 7.0 | 15.6 | 0.00 | 0.00 | 0.00 | 87 | 1007.2 |
| 20260506202003 | 54 | 169 | 8.7 | 18.2 | 0.00 | 0.00 | 0.00 | 87 | 1006.8 |
| 20260506201503 | 54 | 166 | 10.4 | 19.1 | 0.00 | 0.00 | 0.00 | 87 | 1006.7 |
| 20260506201024 | 54 | 171 | 10.4 | 19.1 | 0.00 | 0.00 | 0.00 | 86 | 1006.9 |
| 20260506200524 | 54 | 175 | 9.6 | 20.9 | 0.00 | 0.00 | 0.00 | 86 | 1007.0 |
| 20260506200003 | 55 | 170 | 10.4 | 20.9 | 0.00 | 0.00 | 0.00 | 86 | 1007.0 |
| 20260506195503 | 55 | 168 | 10.4 | 17.4 | 0.00 | 0.00 | 0.00 | 86 | 1006.7 |
| 20260506195003 | 55 | 167 | 9.6 | 21.7 | 0.00 | 0.00 | 0.00 | 85 | 1007.4 |
| 20260506194524 | 55 | 165 | 8.7 | 21.7 | 0.00 | 0.00 | 0.00 | 85 | 1007.2 |
| 20260506194024 | 55 | 169 | 7.0 | 17.4 | 0.00 | 0.00 | 0.00 | 84 | 1006.1 |
| 20260506193503 | 56 | 174 | 7.8 | 21.7 | 0.00 | 0.00 | 0.00 | 84 | 1007.2 |
| 20260506193024 | 56 | 176 | 7.8 | 21.7 | 0.00 | 0.00 | 0.00 | 83 | 1007.5 |
| 20260506192503 | 57 | 174 | 8.7 | 18.2 | 0.00 | 0.00 | 0.00 | 83 | 1007.4 |
| 20260506192003 | 57 | 165 | 8.7 | 18.2 | 0.00 | 0.00 | 0.00 | 82 | 1007.5 |
| 20260506191503 | 57 | 158 | 7.0 | 15.6 | 0.00 | 0.00 | 0.00 | 82 | 1007.2 |
| 20260506191003 | 57 | 157 | 6.1 | 13.9 | 0.00 | 0.00 | 0.00 | 82 | 1007.3 |
| 20260506190503 | 57 | 155 | 7.0 | 17.4 | 0.00 | 0.00 | 0.00 | 82 | 1007.2 |
| 20260506190024 | 58 | 154 | 7.0 | 17.4 | 0.00 | 0.00 | 0.00 | 82 | 1007.2 |
| 20260506185524 | 58 | 167 | 7.8 | 15.6 | 0.00 | 0.00 | 0.00 | 82 | 1007.1 |
| 20260506185003 | 58 | 172 | 9.6 | 20.9 | 0.00 | 0.00 | 0.00 | 82 | 1007.2 |
| 20260506184503 | 58 | 169 | 8.7 | 20.9 | 0.00 | 0.00 | 0.00 | 82 | 1007.2 |
| 20260506184024 | 58 | 171 | 8.7 | 20.0 | 0.00 | 0.00 | 0.00 | 82 | 1007.3 |
| 20260506183503 | 58 | 173 | 8.7 | 18.2 | 0.00 | 0.00 | 0.00 | 82 | 1007.3 |
| 20260506183003 | 58 | 169 | 9.6 | 18.2 | 0.00 | 0.00 | 0.00 | 82 | 1007.3 |
| 20260506182503 | 58 | 165 | 8.7 | 18.2 | 0.00 | 0.00 | 0.00 | 82 | 1007.2 |
| 20260506182024 | 58 | 167 | 8.7 | 17.4 | 0.00 | 0.00 | 0.00 | 82 | 1007.4 |
| 20260506181503 | 58 | 172 | 9.6 | 17.4 | 0.00 | 0.00 | 0.00 | 82 | 1007.4 |
| 20260506181024 | 58 | 173 | 9.6 | 19.1 | 0.00 | 0.00 | 0.00 | 82 | 1007.6 |
| 20260506180503 | 58 | 170 | 9.6 | 19.1 | 0.00 | 0.00 | 0.00 | 82 | 1007.6 |
| 20260506180004 | 58 | 170 | 8.7 | 18.2 | 0.00 | 0.00 | 0.00 | 82 | 1007.8 |
| 20260506175503 | 58 | 170 | 8.7 | 18.2 | 0.00 | 0.00 | 0.00 | 82 | 1007.9 |
| 20260506175003 | 58 | 169 | 8.7 | 20.0 | 0.00 | 0.00 | 0.00 | 82 | 1007.9 |
| 20260506174503 | 58 | 169 | 9.6 | 20.0 | 0.00 | 0.00 | 0.00 | 82 | 1007.9 |
| 20260506174024 | 58 | 169 | 10.4 | 20.0 | 0.00 | 0.00 | 0.00 | 81 | 1008.0 |
| 20260506173503 | 58 | 172 | 9.6 | 16.5 | 0.00 | 0.00 | 0.00 | 82 | 1008.0 |
| 20260506173003 | 58 | 179 | 8.7 | 15.6 | 0.00 | 0.00 | 0.00 | 82 | 1008.0 |
| 20260506172503 | 58 | 174 | 8.7 | 14.8 | 0.00 | 0.00 | 0.00 | 82 | 1008.3 |
| 20260506172003 | 58 | 162 | 8.7 | 14.8 | 0.00 | 0.00 | 0.00 | 82 | 1008.1 |
| 20260506171503 | 58 | 162 | 7.0 | 14.8 | 0.00 | 0.00 | 0.00 | 82 | 1008.2 |
| 20260506171003 | 58 | 174 | 7.8 | 18.2 | 0.00 | 0.00 | 0.00 | 82 | 1008.3 |
| 20260506170503 | 58 | 179 | 7.0 | 18.2 | 0.00 | 0.00 | 0.00 | 82 | 1008.4 |
| 20260506170003 | 58 | 182 | 6.1 | 16.5 | 0.00 | 0.00 | 0.00 | 82 | 1008.5 |
| 20260506165503 | 58 | 191 | 5.2 | 16.5 | 0.00 | 0.00 | 0.00 | 82 | 1008.5 |
| 20260506165003 | 58 | 190 | 5.2 | 12.2 | 0.00 | 0.00 | 0.00 | 83 | 1008.5 |
| 20260506164503 | 58 | 173 | 7.0 | 16.5 | 0.00 | 0.00 | 0.00 | 83 | 1008.4 |
| 20260506164003 | 58 | 167 | 9.6 | 17.4 | 0.00 | 0.00 | 0.00 | 83 | 1008.7 |
| 20260506163503 | 58 | 166 | 9.6 | 17.4 | 0.00 | 0.00 | 0.00 | 83 | 1008.7 |
| 20260506163024 | 58 | 166 | 7.8 | 15.6 | 0.00 | 0.00 | 0.00 | 82 | 1008.7 |
| 20260506162503 | 58 | 167 | 7.0 | 18.2 | 0.00 | 0.00 | 0.00 | 83 | 1008.8 |
| 20260506162003 | 58 | 175 | 7.0 | 14.8 | 0.00 | 0.00 | 0.00 | 83 | 1008.9 |
| 20260506161503 | 58 | 176 | 8.7 | 17.4 | 0.00 | 0.00 | 0.00 | 83 | 1008.9 |
| 20260506161024 | 58 | 173 | 8.7 | 19.1 | 0.00 | 0.00 | 0.00 | 82 | 1008.9 |
| 20260506160503 | 58 | 170 | 7.8 | 19.1 | 0.00 | 0.00 | 0.00 | 83 | 1009.0 |
| 20260506160024 | 58 | 167 | 7.0 | 13.9 | 0.00 | 0.00 | 0.00 | 83 | 1009.0 |
| 20260506155503 | 57 | 164 | 5.2 | 13.0 | 0.00 | 0.00 | 0.00 | 83 | 1009.1 |
| 20260506155003 | 57 | 147 | 4.3 | 10.4 | 0.00 | 0.00 | 0.00 | 83 | 1009.1 |
| 20260506154524 | 57 | 152 | 6.1 | 14.8 | 0.00 | 0.00 | 0.00 | 83 | 1009.0 |
| 20260506154003 | 57 | 158 | 7.0 | 14.8 | 0.00 | 0.00 | 0.00 | 83 | 1008.8 |
| 20260506153503 | 57 | 153 | 6.1 | 13.9 | 0.00 | 0.00 | 0.00 | 82 | 1008.8 |
| 20260506153024 | 58 | 157 | 6.1 | 13.0 | 0.00 | 0.00 | 0.00 | 82 | 1008.6 |
| 20260506152503 | 57 | 148 | 6.1 | 13.9 | 0.00 | 0.00 | 0.00 | 83 | 1008.6 |
| 20260506152003 | 58 | 134 | 5.2 | 13.9 | 0.00 | 0.00 | 0.00 | 82 | 1008.6 |
| 20260506151503 | 58 | 133 | 5.2 | 12.2 | 0.00 | 0.00 | 0.00 | 82 | 1008.6 |
| 20260506151003 | 58 | 144 | 7.0 | 12.2 | 0.00 | 0.00 | 0.00 | 81 | 1008.9 |
| 20260506150503 | 58 | 157 | 7.0 | 14.8 | 0.00 | 0.00 | 0.00 | 81 | 1009.0 |
| 20260506150003 | 58 | 161 | 6.1 | 14.8 | 0.00 | 0.00 | 0.00 | 81 | 1008.9 |
| 20260506145524 | 58 | 150 | 6.1 | 12.2 | 0.00 | 0.00 | 0.00 | 81 | 1009.0 |
| 20260506145003 | 58 | 134 | 5.2 | 11.3 | 0.00 | 0.00 | 0.00 | 79 | 1009.2 |
| 20260506144503 | 59 | 142 | 4.3 | 10.4 | 0.00 | 0.00 | 0.00 | 79 | 1009.3 |
| 20260506144003 | 59 | 158 | 5.2 | 13.9 | 0.00 | 0.00 | 0.00 | 80 | 1009.5 |
| 20260506143503 | 59 | 161 | 7.8 | 16.5 | 0.00 | 0.00 | 0.00 | 79 | 1009.5 |
| 20260506143024 | 59 | 164 | 7.8 | 16.5 | 0.00 | 0.00 | 0.00 | 79 | 1009.6 |
| 20260506142503 | 59 | 168 | 7.8 | 15.6 | 0.00 | 0.00 | 0.00 | 79 | 1009.6 |
| 20260506142003 | 59 | 164 | 6.1 | 13.9 | 0.00 | 0.00 | 0.00 | 78 | 1009.6 |
| 20260506141503 | 60 | 149 | 4.3 | 10.4 | 0.00 | 0.00 | 0.00 | 79 | 1009.5 |
| 20260506141003 | 59 | 146 | 5.2 | 12.2 | 0.00 | 0.00 | 0.00 | 79 | 1009.4 |
| 20260506140524 | 59 | 149 | 4.3 | 12.2 | 0.00 | 0.00 | 0.00 | 79 | 1009.3 |
| 20260506140024 | 59 | 151 | 3.5 | 8.7 | 0.00 | 0.00 | 0.00 | 79 | 1009.2 |
| 20260506135503 | 59 | 138 | 4.3 | 8.7 | 0.00 | 0.00 | 0.00 | 79 | 1009.4 |
| 20260506135003 | 59 | 134 | 3.5 | 7.8 | 0.00 | 0.00 | 0.00 | 78 | 1009.1 |
| 20260506134503 | 59 | 145 | 2.6 | 7.0 | 0.00 | 0.00 | 0.00 | 79 | 1009.2 |
| 20260506134003 | 59 | 132 | 3.5 | 7.0 | 0.00 | 0.00 | 0.00 | 80 | 1009.3 |
| 20260506133524 | 58 | 132 | 3.5 | 6.1 | 0.00 | 0.00 | 0.00 | 80 | 1009.4 |
| 20260506133024 | 58 | 159 | 3.5 | 8.7 | 0.00 | 0.00 | 0.00 | 81 | 1009.4 |
| 20260506132524 | 57 | 159 | 4.3 | 8.7 | 0.00 | 0.00 | 0.00 | 81 | 1009.4 |
| 20260506132003 | 57 | 145 | 3.5 | 7.8 | 0.00 | 0.00 | 0.00 | 81 | 1009.4 |
| 20260506131503 | 57 | 152 | 2.6 | 6.1 | 0.00 | 0.00 | 0.00 | 82 | 1009.5 |
| 20260506131024 | 57 | 144 | 2.6 | 6.1 | 0.00 | 0.00 | 0.00 | 81 | 1009.5 |
| 20260506130503 | 56 | 135 | 2.6 | 6.1 | 0.00 | 0.00 | 0.00 | 82 | 1009.7 |
| 20260506130003 | 56 | 149 | 3.5 | 7.0 | 0.00 | 0.00 | 0.00 | 83 | 1009.8 |
| 20260506125503 | 55 | 149 | 3.5 | 7.8 | 0.00 | 0.00 | 0.00 | 83 | 1009.7 |
| 20260506125003 | 56 | 144 | 3.5 | 7.8 | 0.00 | 0.00 | 0.00 | 83 | 1009.7 |